Location: Le Petit-Vavre
(46.5081°N, 1.5239°E)
Time: 18:35:33
(UTC+00:00)

Meteor 1-13 Rocket - Pass Details

Date: 03 March 2021
Orbit: 830 x 913 km, 81.3° (Epoch: 14 April)

Event Time Altitude Azimuth Distance (km) Brightness Sun altitude
Rises 19:35:35 0° 349° (N) 3,558 7.8 -20.1°
Reaches altitude 10° 19:38:05 10° 350° (N) 2,609 7.0 -20.5°
Maximum altitude 19:44:04 84° 79° (E) 915 4.2 -21.5°
Enters shadow 19:48:37 18° 167° (SSE) 2,070 6.0 -22.3°
